Skip Page Navigation
NASA JPL Caltech
NASA Logo - Jet Propulsion Laboratory + View the NASA Portal
+ Center for Near-Earth Object Studies
JPL Home Earth Solar System Stars & Galaxies Technology
JPL Solar System Dynamics
BODIES ORBITS EPHEMERIDES TOOLS PHYSICAL DATA DISCOVERY FAQ SITE MAP
IMPORTANT: The SSD Announcement email list is now available. Major changes are coming in the near future, including possible hostname and/or URL changes. To be notified of such changes, subscribe to this email list.

Please visit this page for more details.


JPL Small-Body Database Browser
Search: [ help ]  
1390 Abastumani (1935 TA)
Classification: Outer Main-belt Asteroid          SPK-ID: 2001390
Ephemeris | Orbit Diagram | Orbital Elements | Mission Design | Physical Parameters | Discovery Circumstances | Close-Approach Data ]

[ show orbit diagram ]
Orbital Elements at Epoch 2458600.5 (2019-Apr-27.0) TDB
Reference: JPL 34 (heliocentric ecliptic J2000)
 Element Value Uncertainty (1-sigma)   Units 
e .03537495626816945 4.893e-08  
a 3.438297290436461 1.9035e-08 au
q 3.316667674150305 1.7211e-07 au
i 19.92820536105509 5.7334e-06 deg
node 28.91870724915324 1.1582e-05 deg
peri 332.2715527483046 6.0891e-05 deg
M 54.85779040319547 5.9044e-05 deg
tp 2458245.646270148600
(2018-May-07.14627015)
0.00038217 TDB
period 2328.700113649909
6.38
1.9338e-05
5.294e-08
d
yr
n .1545926836563557 1.2838e-09 deg/d
Q 3.559926906722616 1.9709e-08 au
  Orbit Determination Parameters
   # obs. used (total)      2297  
   data-arc span      32876 days (90.01 yr)  
   first obs. used      1929-10-26  
   last obs. used      2019-10-30  
   planetary ephem.      DE431  
   SB-pert. ephem.      SB431-N16  
   condition code      0  
   norm. resid. RMS      .44022  
   source      ORB  
   producer      Otto Matic  
   solution date      2019-Nov-07 02:04:22  

Additional Information
 Earth MOID = 2.32559 au 
 Jupiter MOID = 1.63459 au 
 T_jup = 3.041 
[ show covariance matrix ]

Ephemeris | Orbit Diagram | Orbital Elements | Mission Design | Physical Parameters | Discovery Circumstances | Close-Approach Data ]

Physical Parameter Table
Parameter Symbol Value Units Sigma Reference Notes
absolute magnitude H 9.40   n/a IRAS-A-FPA-3-RDR-IMPS-V6.0 IRAS observations used: 12
diameter diameter 95.849 km 2.283 urn:nasa:pds:neowise_diameters_albedos::2.0[mainbelt] (http://adsabs.harvard.edu/abs/2014ApJ...791..121M)  
rotation period rot_per 17.100 h n/a LCDB (Rev. 2019-January); Warner et al., 2009 Result based on less than full coverage, so that the period may be wrong by 30 percent or so.
Published Reference List:
[Gross, J. (2003) Minor Planet Bull. 30, 44-46.]
geometric albedo albedo 0.033   0.015 urn:nasa:pds:neowise_diameters_albedos::2.0[mainbelt] (http://adsabs.harvard.edu/abs/2014ApJ...791..121M)  
B-V BV 0.685   0.029 EAR-A-5-DDR-UBV-MEAN-VALUES-V1.2 #obs=5; phase (min.=1.06, mean=4.50, max.=15.38) deg.
U-B UB 0.189   0.021 EAR-A-5-DDR-UBV-MEAN-VALUES-V1.2 #obs=4; phase (min.=1.06, mean=6.94, max.=15.38) deg.
Tholen spectral type spec_T P   n/a EAR-A-5-DDR-TAXONOMY-V4.0 used 7 color indices; used ground-based radiometric albedo

1390 Abastumani (1935 TA)          Discovered 1935-Oct-03 by Shajn, P. at Simeis
Practically simultaneous independent discovery by C. Jackson, Johannesburg (UO).
Reference: DISCOVERY.DBLast Updated: 2003-08-29

[ show close-approach data ]
Alternate Designations
 1935 TA = 1926 GN = 1929 UL = A907 GN = A916 VA 
Ephemeris | Orbit Diagram | Orbital Elements | Mission Design | Physical Parameters | Discovery Circumstances | Close-Approach Data ]
ABOUT SSD CREDITS/AWARDS PRIVACY/COPYRIGHT GLOSSARY LINKS
FirstGov
(server date/time)  
NASA Home Page
Site Manager:   Ryan S. Park
Webmaster  Alan B. Chamberlin